TimeEST,TemperatureF,Dew PointF,Humidity,Sea Level PressureIn,VisibilityMPH,Wind Direction,Wind SpeedMPH,Gust SpeedMPH,PrecipitationIn,Events,Conditions,WindDirDegrees,DateUTC
12:51 AM,19.9,12.0,71,30.32,10.0,Calm,Calm,-,N/A,,Clear,0,2013-01-08 05:51:00
1:51 AM,19.0,14.0,81,30.30,10.0,Calm,Calm,-,N/A,,Clear,0,2013-01-08 06:51:00
2:51 AM,21.0,17.1,85,30.29,8.0,Calm,Calm,-,N/A,,Clear,0,2013-01-08 07:51:00
3:51 AM,21.0,17.1,85,30.27,8.0,Calm,Calm,-,N/A,,Clear,0,2013-01-08 08:51:00
4:51 AM,19.0,16.0,88,30.25,9.0,Calm,Calm,-,N/A,,Clear,0,2013-01-08 09:51:00
5:51 AM,19.0,15.1,85,30.25,10.0,Calm,Calm,-,N/A,,Clear,0,2013-01-08 10:51:00
6:51 AM,19.9,15.1,81,30.25,10.0,Calm,Calm,-,N/A,,Clear,0,2013-01-08 11:51:00
7:51 AM,21.0,16.0,81,30.26,10.0,Variable,3.5,-,N/A,,Clear,0,2013-01-08 12:51:00
8:51 AM,25.0,18.0,75,30.26,10.0,Variable,3.5,-,N/A,,Clear,0,2013-01-08 13:51:00
9:51 AM,30.9,21.0,67,30.25,10.0,SSW,6.9,-,N/A,,Clear,210,2013-01-08 14:51:00
11:51 AM,39.0,21.9,50,30.22,10.0,Variable,4.6,-,N/A,,Clear,0,2013-01-08 16:51:00
12:51 PM,42.1,19.9,41,30.20,10.0,Variable,5.8,-,N/A,,Clear,0,2013-01-08 17:51:00
1:51 PM,43.0,21.0,42,30.20,10.0,Variable,4.6,-,N/A,,Clear,0,2013-01-08 18:51:00
2:51 PM,44.1,19.0,37,30.22,10.0,Variable,5.8,-,N/A,,Clear,0,2013-01-08 19:51:00
3:51 PM,43.0,21.0,42,30.23,10.0,Calm,Calm,-,N/A,,Clear,0,2013-01-08 20:51:00
4:51 PM,39.0,21.0,49,30.25,10.0,Variable,3.5,-,N/A,,Clear,0,2013-01-08 21:51:00
5:51 PM,37.0,21.0,52,30.27,10.0,WSW,3.5,-,N/A,,Clear,240,2013-01-08 22:51:00
6:51 PM,36.0,21.0,55,30.30,10.0,Calm,Calm,-,N/A,,Clear,0,2013-01-08 23:51:00
7:51 PM,35.1,19.9,54,30.31,10.0,Calm,Calm,-,N/A,,Clear,0,2013-01-09 00:51:00
8:51 PM,30.9,21.0,67,30.31,10.0,WSW,3.5,-,N/A,,Clear,240,2013-01-09 01:51:00
9:51 PM,33.1,19.9,59,30.32,10.0,WSW,3.5,-,N/A,,Clear,250,2013-01-09 02:51:00
10:51 PM,32.0,19.0,59,30.33,10.0,Calm,Calm,-,N/A,,Clear,0,2013-01-09 03:51:00
11:51 PM,33.1,19.9,59,30.33,10.0,Calm,Calm,-,N/A,,Clear,0,2013-01-09 04:51:00